Location: *
(43.0833°N, 13.0500°E)
Time: 05:12:02
(UTC+00:00)

Cosmos 1238 Rocket - Pass Details

Date: 15 November 2019
Orbit: 374 x 1033 km, 82.9° (Epoch: 11 December)

Event Time Altitude Azimuth Distance (km) Brightness Sun altitude
Rises 16:56:30 0° 345° (NNW) 3,036 6.6 -13.3°
Reaches altitude 10° 16:59:05 10° 338° (NNW) 1,997 5.8 -13.7°
Maximum altitude 17:03:07 38° 271° (W) 841 4.4 -14.4°
Drops below altitude 10° 17:06:28 10° 202° (SSW) 1,657 5.7 -15.0°
Sets 17:08:27 0° 194° (SSW) 2,450 6.5 -15.4°
